Regional Weather Roundup
Issued by NWS

Home | Current Version | Previous Version | Text Only | Print | Product List | Glossary Off
Versions: 1 2 3 4 5 6 7 8 9 10 11 12 13 14 15 16 17 18 19 20 21 22 23 24 25 26 27 28 29 30 31 32 33 34 35 36 37 38 39 40 41 42 43 44 45 46 47 48 49 50

996
ASUS43 KLMK 261310
RWRKY
KENTUCKY REGIONAL WEATHER ROUNDUP
NATIONAL WEATHER SERVICE LOUISVILLE KY
900 AM EDT FRI AUG 26 2016

NOTE "FAIR" INDICATES FEW OR NO CLOUDS BELOW 12,000 FEET
WITH NO SIGNIFICANT WEATHER AND/OR OBSTRUCTIONS TO VISIBILITY.

KYZ001>023-026-027-061>063-070>075-261400-
WESTERN AND SOUTH CENTRAL KENTUCKY

CITY           SKY/WX    TMP DP  RH WIND       PRES   REMARKS
PADUCAH        MOSUNNY   79  75  87 CALM      30.11R FOG
HENDERSON      MOSUNNY   77  72  83 CALM      30.11S
OWENSBORO      MOSUNNY   81  76  84 CALM      30.13R
HOPKINSVILLE   PTSUNNY   79  78  97 CALM      30.12R
BOWLING GREEN  SUNNY     80  75  84 CALM      30.13R
GLASGOW        MOSUNNY   76  76 100 E3        30.14R
$$

KYZ024-025-028>034-038-045-046-053-261400-
NORTH CENTRAL KENTUCKY

CITY           SKY/WX    TMP DP  RH WIND       PRES   REMARKS
LOUISVILLE/SDF PTSUNNY   78  72  81 CALM      30.14R
LOUISVILLE/LOU SUNNY     78  71  79 CALM      30.14R
FORT KNOX      MOSUNNY   76  72  87 CALM      30.13R
$$

KYZ035>037-039>044-047>052-055>060-089>105-261400-
NORTHEAST KENTUCKY

CITY           SKY/WX    TMP DP  RH WIND       PRES   REMARKS
LEXINGTON      SUNNY     77  72  84 CALM      30.16R
COVINGTON      MOSUNNY   78  73  84 CALM      30.16R
FRANKFORT      SUNNY     77  71  82 CALM      30.15R
$$

KYZ054-064>069-076>088-106>120-261400-
SOUTHEAST KENTUCKY

CITY           SKY/WX    TMP DP  RH WIND       PRES   REMARKS
JACKSON        SUNNY     76  73  91 CALM      30.19S
LONDON         SUNNY     75  72  90 CALM      30.18S
SOMERSET       MOSUNNY   72  72 100 CALM      30.18R
MIDDLESBORO    CLOUDY    71  71 100 CALM      30.20S FOG
MONTICELLO     SUNNY    N/A N/A N/A N8        30.18S
$$





USA.gov is the U.S. government's official web portal to all federal, state and local government web resources and services.